Elkins, WV

4:43 PM EST on November 21, 2019 (GMT -0500)
Elkins-Randolph County

Weather History for KEKN - September, 2019

Change the Weather History Date:

Wednesday, September 18, 2019

  Actual Average Record
Temperature  
Mean Temperature 66 °F 62 °F  
Max Temperature 81 °F 73 °F 87 °F (1927)
Min Temperature 52 °F 50 °F 33 °F (1937)
Degree Days  
Heating Degree Days 0 5  
Month to date heating degree days 0 48  
Since 1 July heating degree days 7 78  
Cooling Degree Days 2 1  
Month to date cooling degree days 101 36  
Year to date cooling degree days 772 462  
Growing Degree Days 16 (Base 50)    
Moisture  
Dew Point 50 °F    
Average Humidity 71    
Maximum Humidity 93    
Minimum Humidity 28    
Precipitation  
Precipitation 0.00 in 0.13 in 1.96 in (1907)
Month to date precipitation T 2.22  
Year to date precipitation 37.71 35.03  
Snow  
Snow 0.00 in 0.00 in 0.00 in (2016)
Month to date snowfall 0.0 0.0  
Since 1 September snowfall 0.0 0.0  
Snow Depth 0.00 in    
Sea Level Pressure  
Sea Level Pressure 30.18 in    
Wind  
Wind Speed 1 mph ()    
Max Wind Speed 10 mph    
Max Gust Speed 15 mph    
Visibility 5.2 miles    
Events Fog    
T = Trace of Precipitation, MM = Missing Value Source: Averaged Metar Reports

Daily Weather History Graph

Daily Weather History Graph

Search for Another Location

Airport or City:

Astronomy

Sep. 18, 2019 Rise Set
Actual Time 7:03 AM EDT 7:23 PM EDT
Civil Twilight 6:36 AM EDT 7:49 PM EDT
Nautical Twilight 6:05 AM EDT 8:21 PM EDT
Astronomical Twilight 5:33 AM EDT 8:53 PM EDT
Moon 9:58 PM EDT (9/18) 11:02 AM EDT (9/18)
Length of Visible Light 13h 13m
Length of Day
12h 19m
Waning Gibbous, 82% of the Moon is Illuminated
Sep 18
Waning Gibbous
Sep 21
Last Quarter
Sep 28
New
Oct 5
First Quarter
Oct 13
Full

Hourly Weather History & Observations

Time (EDT) Temp. Dew Point Humidity Pressure Visibility Wind Dir Wind Speed Gust Speed Precip Events Conditions
12:51 AM 57.9 °F 54.0 °F 87% 30.15 in 5.0 mi Calm Calm - N/A   Clear
1:51 AM 57.0 °F 54.0 °F 89% 30.15 in 5.0 mi Calm Calm - N/A   Clear
2:51 AM 55.0 °F 52.0 °F 89% 30.16 in 4.0 mi Calm Calm - N/A   Clear
3:44 AM 55.0 °F 52.0 °F 89% 30.18 in 2.0 mi Calm Calm - N/A   Scattered Clouds
3:51 AM 54.0 °F 51.1 °F 90% 30.17 in 3.0 mi Calm Calm - N/A   Mostly Cloudy
4:04 AM 54.0 °F 51.1 °F 90% 30.18 in 1.8 mi Calm Calm - N/A   Overcast
4:16 AM 54.0 °F 51.1 °F 90% 30.18 in 0.8 mi Calm Calm - N/A   Overcast
4:35 AM 54.0 °F 51.1 °F 90% 30.18 in 0.2 mi Calm Calm - N/A Fog Fog
4:51 AM 54.0 °F 51.1 °F 90% 30.17 in 0.5 mi Calm Calm - N/A Fog Fog
4:58 AM 53.1 °F 51.1 °F 93% 30.18 in 0.2 mi Calm Calm - N/A Fog Fog
5:17 AM 53.1 °F 50.0 °F 89% 30.18 in 0.5 mi Calm Calm - N/A Fog Fog
5:37 AM 54.0 °F 51.1 °F 90% 30.18 in 0.2 mi Calm Calm - N/A Fog Fog
5:51 AM 53.1 °F 50.0 °F 89% 30.18 in 0.2 mi Calm Calm - N/A Fog Fog
6:15 AM 53.1 °F 50.0 °F 89% 30.18 in 0.5 mi Calm Calm - N/A Fog Fog
6:29 AM 53.1 °F 51.1 °F 93% 30.19 in 0.2 mi Calm Calm - N/A Fog Fog
6:51 AM 54.0 °F 52.0 °F 93% 30.19 in 0.2 mi Calm Calm - N/A Fog Fog
7:51 AM 54.0 °F 52.0 °F 93% 30.20 in 0.2 mi Calm Calm - N/A Fog Fog
8:51 AM 57.9 °F 55.0 °F 90% 30.21 in 0.5 mi Calm Calm - N/A Fog Fog
9:03 AM 59.0 °F 55.0 °F 87% 30.21 in 2.0 mi Calm Calm - N/A   Mostly Cloudy
9:07 AM 59.0 °F 55.0 °F 87% 30.21 in 4.0 mi Calm Calm - N/A   Scattered Clouds
9:51 AM 64.9 °F 55.0 °F 70% 30.20 in 10.0 mi NW 4.6 mph - N/A   Clear
10:51 AM 70.0 °F 54.0 °F 57% 30.19 in 10.0 mi Calm Calm - N/A   Clear
11:51 AM 73.9 °F 52.0 °F 46% 30.19 in 10.0 mi Variable 4.6 mph - N/A   Clear
12:51 PM 77.0 °F 46.9 °F 34% 30.17 in 10.0 mi Variable 6.9 mph - N/A   Clear
1:51 PM 78.1 °F 48.0 °F 35% 30.17 in 10.0 mi East 6.9 mph - N/A   Clear
2:51 PM 79.0 °F 46.9 °F 32% 30.16 in 10.0 mi North - - N/A   Clear
3:51 PM 80.1 °F 45.0 °F 29% 30.15 in 10.0 mi North 8.1 mph - N/A   Clear
4:51 PM 80.1 °F 45.0 °F 29% 30.15 in 10.0 mi North 5.8 mph - N/A   Clear
5:51 PM 77.0 °F 46.9 °F 34% 30.15 in 10.0 mi Variable 5.8 mph - N/A   Clear
6:51 PM 73.0 °F 48.0 °F 41% 30.16 in 10.0 mi Variable 4.6 mph - N/A   Clear
7:51 PM 66.9 °F 48.9 °F 52% 30.19 in 10.0 mi WNW 4.6 mph - N/A   Clear
8:51 PM 61.0 °F 48.9 °F 64% 30.21 in 10.0 mi Calm Calm - N/A   Clear
9:51 PM 60.1 °F 46.9 °F 62% 30.22 in 10.0 mi Calm Calm - N/A   Clear
10:51 PM 61.0 °F 46.0 °F 58% 30.22 in 10.0 mi SSE 4.6 mph - N/A   Clear
11:51 PM 60.1 °F 46.0 °F 60% 30.22 in 10.0 mi SSE 3.5 mph - N/A   Clear